Location: Appeville
(49.3218°N, 1.3427°W)
Time: 05:10:14
(UTC+00:00)

STARLINK 1043 - Pass Details

Date: 08 December 2019
Orbit: 549 x 550 km, 53.0° (Epoch: 27 January)

Event Time Altitude Azimuth Distance (km) Brightness Sun altitude
Exits shadow 05:26:33 76° 288° (WNW) 577 3.4 -21.9°
Maximum altitude 05:26:52 88° 212° (SSW) 562 3.5 -21.8°
Drops below altitude 10° 05:31:03 10° 116° (ESE) 1,836 7.4 -21.1°
Sets 05:33:17 0° 116° (ESE) 2,729 8.6 -20.8°
